Flag for India Past Weather in Thiruvananthapuram, Kerala, India — Yesterday and Last 2 Weeks

Now
84 °F

Broken clouds.


Feels Like: 92 °F
Forecast: 77 / 81 °F
Wind: 12 mph from Northwest

Location: Thiruvananthapuram

Current Time: Jul 23, 2016 at 4:56:49 PM

Latest Report: Jul 23, 2016 at 4:30 PM


Visibility: 3 mi

Pressure: 29.71 "Hg

Humidity: 74%

Dew Point: 75 °F

Location of ThiruvananthapuramLocation

Past Weather in Thiruvananthapuram — Graph

°F

Thiruvananthapuram Temperature Yesterday

Maximum temperature yesterday: 88 °F (at 12:30 PM)
Minimum temperature yesterday: 79 °F (at 3:30 AM)
Average temperature yesterday: 82 °F

High & Low Weather Summary for the Past Weeks

 TemperatureHumidityPressure
High88 °F (Jul 10, 2:00 PM)100% (Jul 8, 9:00 PM)29.89 "Hg (Jul 8, 9:00 PM)
Low73 °F (Jul 12, 6:00 PM)62% (Jul 14, 12:30 PM)29.71 "Hg (Jul 10, 4:00 PM)
Average81 °F84%29.79 "Hg
* Reported Jul 8 3:30 PM — Jul 23 3:30 PM, Thiruvananthapuram, Weather by CustomWeather, © 2016

Note: Actual official high and low records may vary slightly from our data, if they occured in-between our weather recording intervals... More about our weather records

Advertising

Thiruvananthapuram Weather History for the Previous 24 Hours

Scroll right to see more
 ConditionsComfort  
Time TempWeatherWind HumidityBarometerVisibility
3:30 PM
Sat, Jul 23
82 °FMore clouds than sun.12 mph79%29.71 "Hg3 mi
3:00 PM84 °FBroken clouds.13 mph74%29.71 "Hg3 mi
2:30 PM84 °FBroken clouds.16 mph74%29.71 "Hg3 mi
2:00 PM84 °FBroken clouds.14 mph74%29.74 "Hg3 mi
1:30 PM82 °FBroken clouds.12 mph79%29.74 "Hg3 mi
1:00 PM82 °FBroken clouds.10 mph79%29.74 "Hg3 mi
12:30 PM82 °FBroken clouds.10 mph79%29.77 "Hg3 mi
12:00 PM81 °FBroken clouds.10 mph84%29.77 "Hg3 mi
11:30 AM81 °FBroken clouds.10 mph84%29.77 "Hg3 mi
11:00 AM81 °FBroken clouds.9 mph84%29.80 "Hg2 mi
10:30 AM79 °FBroken clouds.9 mph89%29.80 "Hg2 mi
10:00 AM77 °FMore clouds than sun.12 mph94%29.83 "Hg2 mi
9:30 AM77 °FLight rain. More clouds than sun.9 mph94%29.80 "Hg1 mi
8:30 AM81 °FBroken clouds.7 mph84%29.80 "Hg2 mi
7:30 AM79 °FBroken clouds.6 mph84%29.77 "Hg2 mi
6:30 AM77 °FFog.3 mph89%29.77 "Hg2 mi
6:00 AM77 °FFog.3 mph89%29.74 "Hg2 mi
5:30 AM77 °FFog.5 mph89%29.74 "Hg2 mi
5:00 AM77 °FFog.5 mph89%29.74 "Hg2 mi
4:30 AM77 °FFog.3 mph89%29.74 "Hg2 mi
4:00 AM77 °FFog.5 mph94%29.74 "Hg2 mi
2:30 AM79 °FLight rain. Overcast.6 mph94%29.77 "Hg2 mi
2:00 AM79 °FPassing clouds.3 mph94%29.77 "Hg2 mi
1:30 AM79 °FPassing clouds.5 mph94%29.77 "Hg2 mi
12:30 AM79 °FPassing clouds.5 mph94%29.80 "Hg2 mi
12:00 AM79 °FPassing clouds.5 mph94%29.80 "Hg2 mi
10:30 PM
Fri, Jul 22
79 °FPassing clouds.5 mph94%29.80 "Hg2 mi
9:30 PM81 °FPassing clouds.7 mph89%29.80 "Hg2 mi
9:00 PM81 °FPassing clouds.7 mph89%29.80 "Hg2 mi
8:30 PM82 °FPassing clouds.8 mph84%29.80 "Hg2 mi
8:00 PM82 °FPassing clouds.9 mph84%29.77 "Hg2 mi
7:30 PM81 °FPassing clouds.9 mph84%29.77 "Hg2 mi
7:00 PM82 °FScattered clouds.9 mph79%29.77 "Hg2 mi
6:30 PM82 °FScattered clouds.12 mph84%29.77 "Hg2 mi
6:00 PM82 °FScattered clouds.9 mph84%29.74 "Hg2 mi
5:30 PM84 °FScattered clouds.12 mph79%29.74 "Hg2 mi
5:00 PM84 °FScattered clouds.9 mph79%29.74 "Hg3 mi
4:30 PM84 °FScattered clouds.9 mph79%29.74 "Hg3 mi
4:00 PM84 °FScattered clouds.9 mph79%29.74 "Hg3 mi
Weather by CustomWeather, © 2016

See weather overviewHow to use our weather pages